Time,TemperatureF,DewpointF,PressureIn,WindDirection,WindDirectionDegrees,WindSpeedMPH,WindSpeedGustMPH,Humidity,HourlyPrecipIn,Conditions,Clouds,dailyrainin,SoftwareType,DateUTC
2013-01-27 00:01:00,24.0,14.0,30.39,South,178,3.0,13.0,65,0.00,,,0.00,,2013-01-27 06:01:00,
2013-01-27 00:11:00,24.0,14.0,30.39,South,178,3.0,13.0,65,0.00,,,0.00,,2013-01-27 06:11:00,
2013-01-27 00:21:00,24.0,14.0,30.38,SSE,163,4.0,13.0,64,0.00,,,0.00,,2013-01-27 06:21:00,
2013-01-27 00:32:00,24.0,14.0,30.38,SSW,194,3.0,11.0,64,0.00,,,0.00,,2013-01-27 06:32:00,
2013-01-27 00:41:00,24.0,14.0,30.38,SSW,194,3.0,11.0,64,0.00,,,0.00,,2013-01-27 06:41:00,
2013-01-27 00:52:00,24.0,14.0,30.38,SSW,196,4.0,11.0,64,0.00,,,0.00,,2013-01-27 06:52:00,
2013-01-27 01:01:00,24.0,14.0,30.37,South,174,4.0,14.0,66,0.00,,,0.00,,2013-01-27 07:01:00,
2013-01-27 01:13:00,24.0,14.0,30.37,South,174,4.0,14.0,66,0.00,,,0.00,,2013-01-27 07:13:00,
2013-01-27 01:21:00,24.0,15.0,30.37,SSW,194,6.0,16.0,68,0.00,,,0.00,,2013-01-27 07:21:00,
2013-01-27 01:31:00,24.0,16.0,30.38,South,191,4.0,16.0,70,0.00,,,0.00,,2013-01-27 07:31:00,
2013-01-27 01:41:00,24.0,16.0,30.38,South,191,4.0,16.0,70,0.00,,,0.00,,2013-01-27 07:41:00,
2013-01-27 01:52:00,24.0,16.0,30.38,SW,214,5.0,12.0,72,0.00,,,0.00,,2013-01-27 07:52:00,
2013-01-27 02:01:00,24.0,17.0,30.38,South,189,3.0,13.0,73,0.00,,,0.00,,2013-01-27 08:01:00,
2013-01-27 02:11:00,24.0,17.0,30.38,South,189,3.0,13.0,73,0.00,,,0.00,,2013-01-27 08:11:00,
2013-01-27 02:22:00,24.0,17.0,30.38,SW,223,6.0,16.0,74,0.00,,,0.00,,2013-01-27 08:22:00,
2013-01-27 02:31:00,24.0,17.0,30.38,SSW,198,5.0,11.0,74,0.00,,,0.00,,2013-01-27 08:31:00,
2013-01-27 02:42:00,24.0,17.0,30.38,SSW,198,5.0,11.0,74,0.00,,,0.00,,2013-01-27 08:42:00,
2013-01-27 02:52:00,24.0,17.0,30.38,SE,132,5.0,16.0,75,0.00,,,0.00,,2013-01-27 08:52:00,
2013-01-27 03:02:00,24.0,18.0,30.37,SE,142,5.0,12.0,76,0.00,,,0.00,,2013-01-27 09:02:00,
2013-01-27 03:11:00,24.0,18.0,30.37,SE,142,5.0,12.0,76,0.00,,,0.00,,2013-01-27 09:11:00,
2013-01-27 03:21:00,24.0,18.0,30.37,SSW,207,4.0,14.0,76,0.00,,,0.00,,2013-01-27 09:21:00,
2013-01-27 03:32:00,24.0,18.0,30.37,SSW,195,5.0,16.0,76,0.00,,,0.00,,2013-01-27 09:32:00,
2013-01-27 03:41:00,24.0,18.0,30.37,SSW,195,5.0,16.0,76,0.00,,,0.00,,2013-01-27 09:41:00,
2013-01-27 03:52:00,24.0,18.0,30.36,SW,222,4.0,15.0,76,0.00,,,0.00,,2013-01-27 09:52:00,
2013-01-27 04:01:00,24.0,18.0,30.35,South,188,4.0,12.0,77,0.00,,,0.00,,2013-01-27 10:01:00,
2013-01-27 04:11:00,24.0,18.0,30.35,South,189,3.0,11.0,78,0.00,,,0.00,,2013-01-27 10:11:00,
2013-01-27 04:21:00,24.0,18.0,30.35,South,189,3.0,11.0,78,0.00,,,0.00,,2013-01-27 10:21:00,
2013-01-27 04:31:00,24.0,18.0,30.35,South,186,2.0,10.0,78,0.00,,,0.00,,2013-01-27 10:31:00,
2013-01-27 04:42:00,24.0,18.0,30.35,South,186,2.0,10.0,78,0.00,,,0.00,,2013-01-27 10:42:00,
2013-01-27 04:52:00,24.0,18.0,30.35,South,186,4.0,12.0,78,0.00,,,0.00,,2013-01-27 10:52:00,
2013-01-27 05:01:00,23.0,17.0,30.34,South,184,4.0,12.0,79,0.00,,,0.00,,2013-01-27 11:01:00,
2013-01-27 05:11:00,23.0,18.0,30.32,South,178,2.0,8.0,80,0.00,,,0.00,,2013-01-27 11:11:00,
2013-01-27 05:21:00,23.0,18.0,30.32,South,178,2.0,8.0,80,0.00,,,0.00,,2013-01-27 11:21:00,
2013-01-27 05:32:00,23.0,18.0,30.33,South,184,3.0,11.0,80,0.00,,,0.00,,2013-01-27 11:32:00,
2013-01-27 05:42:00,23.0,18.0,30.33,South,184,3.0,11.0,80,0.00,,,0.00,,2013-01-27 11:42:00,
2013-01-27 05:52:00,23.0,18.0,30.33,SE,140,3.0,10.0,81,0.00,,,0.00,,2013-01-27 11:52:00,
2013-01-27 06:02:00,23.0,18.0,30.33,ESE,108,4.0,11.0,81,0.00,,,0.00,,2013-01-27 12:02:00,
2013-01-27 06:11:00,23.0,18.0,30.33,ESE,108,4.0,11.0,81,0.00,,,0.00,,2013-01-27 12:11:00,
2013-01-27 06:21:00,23.0,18.0,30.32,SSE,147,1.0,11.0,81,0.00,,,0.00,,2013-01-27 12:21:00,
2013-01-27 06:32:00,23.0,18.0,30.32,SE,134,3.0,15.0,81,0.00,,,0.00,,2013-01-27 12:32:00,
2013-01-27 06:42:00,23.0,18.0,30.32,SE,134,3.0,15.0,81,0.00,,,0.00,,2013-01-27 12:42:00,
2013-01-27 06:52:00,24.0,19.0,30.32,SSW,196,4.0,16.0,80,0.00,,,0.00,,2013-01-27 12:52:00,
2013-01-27 07:02:00,24.0,19.0,30.32,South,178,4.0,14.0,80,0.00,,,0.00,,2013-01-27 13:02:00,
2013-01-27 07:11:00,24.0,19.0,30.32,South,178,4.0,14.0,80,0.00,,,0.00,,2013-01-27 13:11:00,
2013-01-27 07:22:00,24.0,19.0,30.32,South,176,4.0,11.0,80,0.00,,,0.00,,2013-01-27 13:22:00,
2013-01-27 07:32:00,24.0,19.0,30.32,South,188,7.0,18.0,80,0.00,,,0.00,,2013-01-27 13:32:00,
2013-01-27 07:42:00,24.0,19.0,30.32,South,188,7.0,18.0,80,0.00,,,0.00,,2013-01-27 13:42:00,
2013-01-27 07:52:00,24.0,19.0,30.33,SSE,163,4.0,16.0,80,0.00,,,0.00,,2013-01-27 13:52:00,
2013-01-27 08:02:00,24.0,19.0,30.33,SE,136,4.0,12.0,80,0.00,,,0.00,,2013-01-27 14:02:00,
2013-01-27 08:11:00,24.0,19.0,30.33,SE,136,4.0,12.0,80,0.00,,,0.00,,2013-01-27 14:11:00,
2013-01-27 08:22:00,24.0,19.0,30.33,SE,138,3.0,10.0,80,0.00,,,0.00,,2013-01-27 14:22:00,
2013-01-27 08:32:00,25.0,20.0,30.33,SSE,165,3.0,19.0,80,0.00,,,0.00,,2013-01-27 14:32:00,
2013-01-27 08:42:00,25.0,20.0,30.33,SSE,165,3.0,19.0,80,0.00,,,0.00,,2013-01-27 14:42:00,
2013-01-27 08:53:00,25.0,19.0,30.33,SSE,165,3.0,8.0,79,0.00,,,0.00,,2013-01-27 14:53:00,
2013-01-27 09:02:00,25.0,19.0,30.33,SSW,210,2.0,12.0,79,0.00,,,0.00,,2013-01-27 15:02:00,
2013-01-27 09:11:00,25.0,19.0,30.33,SSW,210,2.0,12.0,79,0.00,,,0.00,,2013-01-27 15:11:00,
2013-01-27 09:22:00,26.0,20.0,30.34,SSE,167,2.0,9.0,78,0.00,,,0.00,,2013-01-27 15:22:00,
2013-01-27 09:32:00,26.0,20.0,30.34,SSE,159,3.0,17.0,77,0.00,,,0.00,,2013-01-27 15:32:00,
2013-01-27 09:42:00,26.0,20.0,30.34,SSE,159,3.0,17.0,77,0.00,,,0.00,,2013-01-27 15:42:00,
2013-01-27 09:53:00,26.0,20.0,30.34,SSW,194,4.0,11.0,77,0.00,,,0.00,,2013-01-27 15:53:00,
2013-01-27 10:02:00,27.0,20.0,30.34,SSW,203,4.0,18.0,76,0.00,,,0.00,,2013-01-27 16:02:00,
2013-01-27 10:11:00,27.0,20.0,30.34,SSW,203,4.0,18.0,76,0.00,,,0.00,,2013-01-27 16:11:00,
2013-01-27 10:21:00,27.0,20.0,30.33,SE,144,5.0,16.0,76,0.00,,,0.00,,2013-01-27 16:21:00,
2013-01-27 10:32:00,27.0,20.0,30.32,SE,134,4.0,11.0,75,0.00,,,0.00,,2013-01-27 16:32:00,
2013-01-27 10:42:00,27.0,20.0,30.32,SE,134,4.0,11.0,75,0.00,,,0.00,,2013-01-27 16:42:00,
2013-01-27 10:52:00,28.0,21.0,30.30,SE,146,2.0,8.0,75,0.00,,,0.00,,2013-01-27 16:52:00,
2013-01-27 11:02:00,28.0,21.0,30.30,SE,138,5.0,13.0,75,0.00,,,0.00,,2013-01-27 17:02:00,
2013-01-27 11:12:00,28.0,21.0,30.30,SE,138,5.0,13.0,75,0.00,,,0.00,,2013-01-27 17:12:00,
2013-01-27 11:22:00,28.0,21.0,30.29,SSE,151,5.0,15.0,75,0.00,,,0.00,,2013-01-27 17:22:00,
2013-01-27 11:32:00,28.0,21.0,30.28,SE,139,3.0,12.0,75,0.00,,,0.00,,2013-01-27 17:32:00,
2013-01-27 11:42:00,28.0,21.0,30.28,SE,139,3.0,12.0,75,0.00,,,0.00,,2013-01-27 17:42:00,
2013-01-27 11:52:00,28.0,21.0,30.28,SSW,210,5.0,18.0,75,0.00,,,0.00,,2013-01-27 17:52:00,
2013-01-27 12:02:00,29.0,22.0,30.26,South,180,5.0,15.0,75,0.00,,,0.00,,2013-01-27 18:02:00,
2013-01-27 12:11:00,29.0,22.0,30.26,South,180,5.0,15.0,75,0.00,,,0.00,,2013-01-27 18:11:00,
2013-01-27 12:22:00,29.0,22.0,30.25,South,182,3.0,11.0,75,0.00,,,0.00,,2013-01-27 18:22:00,
2013-01-27 12:32:00,29.0,22.0,30.24,South,184,2.0,12.0,75,0.00,,,0.00,,2013-01-27 18:32:00,
2013-01-27 12:42:00,29.0,22.0,30.24,South,184,2.0,12.0,75,0.00,,,0.00,,2013-01-27 18:42:00,
2013-01-27 12:52:00,29.0,22.0,30.23,South,186,5.0,14.0,75,0.00,,,0.00,,2013-01-27 18:52:00,
2013-01-27 13:02:00,29.0,22.0,30.21,SSW,197,3.0,13.0,76,0.00,,,0.00,,2013-01-27 19:02:00,
2013-01-27 13:11:00,29.0,22.0,30.21,SSW,197,3.0,13.0,76,0.00,,,0.00,,2013-01-27 19:11:00,
2013-01-27 13:22:00,29.0,23.0,30.21,SSE,153,2.0,9.0,77,0.00,,,0.00,,2013-01-27 19:22:00,
2013-01-27 13:32:00,29.0,23.0,30.20,SSW,208,2.0,8.0,77,0.00,,,0.00,,2013-01-27 19:32:00,
2013-01-27 13:42:00,29.0,23.0,30.20,SSW,208,2.0,8.0,77,0.00,,,0.00,,2013-01-27 19:42:00,
2013-01-27 13:52:00,29.0,23.0,30.20,South,186,3.0,11.0,77,0.00,,,0.00,,2013-01-27 19:52:00,
2013-01-27 14:02:00,29.0,23.0,30.21,SE,140,4.0,11.0,78,0.00,,,0.00,,2013-01-27 20:02:00,
2013-01-27 14:11:00,29.0,23.0,30.21,SE,140,4.0,11.0,78,0.00,,,0.00,,2013-01-27 20:11:00,
2013-01-27 14:22:00,29.0,25.0,30.20,SE,132,2.0,12.0,83,0.00,,,0.00,,2013-01-27 20:22:00,
2013-01-27 14:32:00,28.0,25.0,30.18,ESE,122,5.0,12.0,90,0.00,,,0.00,,2013-01-27 20:32:00,
2013-01-27 14:42:00,28.0,25.0,30.18,ESE,122,5.0,12.0,90,0.00,,,0.00,,2013-01-27 20:42:00,
2013-01-27 14:52:00,27.0,25.0,30.17,SSW,202,3.0,12.0,93,0.02,,,0.02,,2013-01-27 20:52:00,
2013-01-27 15:02:00,27.0,26.0,30.15,SE,137,4.0,11.0,94,0.04,,,0.04,,2013-01-27 21:02:00,
2013-01-27 15:12:00,27.0,26.0,30.15,SE,137,4.0,11.0,94,0.04,,,0.04,,2013-01-27 21:12:00,
2013-01-27 15:22:00,27.0,26.0,30.14,SE,140,6.0,14.0,94,0.06,,,0.06,,2013-01-27 21:22:00,
2013-01-27 15:32:00,28.0,27.0,30.14,SE,143,5.0,17.0,94,0.07,,,0.07,,2013-01-27 21:32:00,
2013-01-27 15:42:00,28.0,27.0,30.14,SE,143,5.0,17.0,94,0.07,,,0.07,,2013-01-27 21:42:00,
2013-01-27 15:52:00,28.0,27.0,30.13,ESE,104,4.0,14.0,94,0.06,,,0.08,,2013-01-27 21:52:00,
2013-01-27 16:02:00,29.0,27.0,30.13,SSE,153,4.0,15.0,94,0.05,,,0.09,,2013-01-27 22:02:00,
2013-01-27 16:11:00,29.0,27.0,30.13,SSE,153,4.0,15.0,94,0.05,,,0.09,,2013-01-27 22:11:00,
2013-01-27 16:22:00,29.0,27.0,30.08,SE,136,7.0,15.0,94,0.04,,,0.10,,2013-01-27 22:22:00,
2013-01-27 16:32:00,29.0,27.0,30.11,SE,135,4.0,18.0,94,0.03,,,0.10,,2013-01-27 22:32:00,
2013-01-27 16:42:00,29.0,27.0,30.11,SE,135,4.0,18.0,94,0.03,,,0.10,,2013-01-27 22:42:00,
2013-01-27 16:52:00,29.0,27.0,30.09,ESE,123,4.0,14.0,94,0.02,,,0.10,,2013-01-27 22:52:00,
2013-01-27 17:02:00,29.0,27.0,30.09,SE,130,4.0,18.0,94,0.01,,,0.10,,2013-01-27 23:02:00,
2013-01-27 17:12:00,29.0,27.0,30.09,SE,130,4.0,18.0,94,0.01,,,0.10,,2013-01-27 23:12:00,
2013-01-27 17:21:00,30.0,28.0,30.07,SE,137,6.0,16.0,94,0.00,,,0.10,,2013-01-27 23:21:00,
2013-01-27 17:32:00,30.0,28.0,30.06,South,186,5.0,18.0,94,0.00,,,0.10,,2013-01-27 23:32:00,
2013-01-27 17:41:00,30.0,28.0,30.06,South,186,5.0,18.0,94,0.00,,,0.10,,2013-01-27 23:41:00,
2013-01-27 17:53:00,30.0,28.0,30.04,SE,145,5.0,15.0,93,0.00,,,0.10,,2013-01-27 23:53:00,
2013-01-27 18:01:00,30.0,28.0,30.04,SE,138,8.0,22.0,92,0.00,,,0.10,,2013-01-28 00:01:00,
2013-01-27 18:11:00,30.0,28.0,30.04,SE,138,8.0,22.0,92,0.00,,,0.10,,2013-01-28 00:11:00,
2013-01-27 18:21:00,30.0,28.0,30.04,SE,134,6.0,18.0,91,0.00,,,0.10,,2013-01-28 00:21:00,
2013-01-27 18:32:00,31.0,29.0,30.03,SSE,165,6.0,18.0,91,0.00,,,0.10,,2013-01-28 00:32:00,
2013-01-27 18:42:00,31.0,29.0,30.03,SSE,165,6.0,18.0,91,0.00,,,0.10,,2013-01-28 00:42:00,
2013-01-27 18:52:00,31.0,29.0,30.02,ESE,121,6.0,17.0,92,0.00,,,0.10,,2013-01-28 00:52:00,
2013-01-27 19:01:00,30.0,28.0,30.02,SE,128,3.0,16.0,93,0.00,,,0.10,,2013-01-28 01:01:00,
2013-01-27 19:11:00,30.0,28.0,30.02,SE,128,3.0,16.0,93,0.00,,,0.10,,2013-01-28 01:11:00,
2013-01-27 19:22:00,31.0,29.0,30.02,SE,138,6.0,18.0,93,0.00,,,0.10,,2013-01-28 01:22:00,
2013-01-27 19:32:00,31.0,29.0,30.01,SE,140,5.0,16.0,94,0.00,,,0.10,,2013-01-28 01:32:00,
2013-01-27 19:42:00,31.0,29.0,30.01,SE,140,5.0,16.0,94,0.00,,,0.10,,2013-01-28 01:42:00,
2013-01-27 19:52:00,31.0,29.0,30.01,SE,142,3.0,11.0,94,0.00,,,0.10,,2013-01-28 01:52:00,
2013-01-27 20:02:00,31.0,29.0,30.01,South,190,4.0,11.0,94,0.00,,,0.10,,2013-01-28 02:02:00,
2013-01-27 20:11:00,31.0,29.0,30.01,South,190,4.0,11.0,94,0.00,,,0.10,,2013-01-28 02:11:00,
2013-01-27 20:22:00,30.0,29.0,30.00,ESE,123,2.0,13.0,95,0.00,,,0.10,,2013-01-28 02:22:00,
2013-01-27 20:32:00,30.0,29.0,30.00,SE,128,2.0,13.0,95,0.00,,,0.10,,2013-01-28 02:32:00,
2013-01-27 20:42:00,30.0,29.0,30.00,SE,128,2.0,13.0,95,0.00,,,0.10,,2013-01-28 02:42:00,
2013-01-27 20:52:00,31.0,30.0,29.99,South,171,3.0,14.0,95,0.00,,,0.10,,2013-01-28 02:52:00,
2013-01-27 21:02:00,30.0,29.0,29.98,SE,132,2.0,9.0,95,0.00,,,0.10,,2013-01-28 03:02:00,
2013-01-27 21:11:00,30.0,29.0,29.98,SE,132,2.0,9.0,95,0.00,,,0.10,,2013-01-28 03:11:00,
2013-01-27 21:21:00,31.0,30.0,29.98,SE,139,2.0,10.0,96,0.00,,,0.10,,2013-01-28 03:21:00,
2013-01-27 21:32:00,31.0,30.0,29.98,South,185,1.0,8.0,96,0.00,,,0.10,,2013-01-28 03:32:00,
2013-01-27 21:41:00,31.0,30.0,29.98,South,185,1.0,8.0,96,0.00,,,0.10,,2013-01-28 03:41:00,
2013-01-27 21:53:00,31.0,30.0,29.97,SE,144,2.0,8.0,96,0.00,,,0.10,,2013-01-28 03:53:00,
2013-01-27 22:01:00,31.0,30.0,29.96,ESE,123,1.0,6.0,96,0.01,,,0.11,,2013-01-28 04:01:00,
2013-01-27 22:11:00,31.0,30.0,29.96,ESE,123,1.0,6.0,96,0.01,,,0.11,,2013-01-28 04:11:00,
2013-01-27 22:21:00,31.0,30.0,29.96,SSE,166,2.0,7.0,96,0.01,,,0.11,,2013-01-28 04:21:00,
2013-01-27 22:32:00,31.0,30.0,29.95,SSE,163,2.0,7.0,96,0.01,,,0.11,,2013-01-28 04:32:00,
2013-01-27 22:42:00,31.0,30.0,29.95,SSE,163,2.0,7.0,96,0.01,,,0.11,,2013-01-28 04:42:00,
2013-01-27 22:52:00,31.0,30.0,29.95,SE,140,2.0,9.0,97,0.02,,,0.12,,2013-01-28 04:52:00,
2013-01-27 23:03:00,32.0,31.0,29.94,SSE,152,2.0,8.0,97,0.01,,,0.12,,2013-01-28 05:03:00,
2013-01-27 23:11:00,32.0,31.0,29.94,SSE,152,2.0,8.0,97,0.01,,,0.12,,2013-01-28 05:11:00,
2013-01-27 23:21:00,32.0,31.0,29.93,SE,136,1.0,7.0,97,0.01,,,0.12,,2013-01-28 05:21:00,
2013-01-27 23:31:00,32.0,31.0,29.94,SE,144,3.0,11.0,97,0.01,,,0.13,,2013-01-28 05:31:00,
2013-01-27 23:41:00,32.0,31.0,29.94,SE,144,3.0,11.0,97,0.01,,,0.13,,2013-01-28 05:41:00,
2013-01-27 23:52:00,32.0,31.0,29.93,SSW,208,2.0,8.0,97,0.01,,,0.13,,2013-01-28 05:52:00,